Regional Weather Roundup
Issued by NWS

Home | Current Version | Previous Version | Text Only | Print | Product List | Glossary On
Versions: 1 2 3 4 5 6 7 8 9 10 11 12 13 14 15 16 17 18 19 20 21 22 23 24 25 26 27 28 29 30 31 32 33 34 35 36 37 38 39 40 41 42 43 44 45 46 47 48 49 50
000
ASUS43 KBIS 231210
RWRND

NORTH DAKOTA REGIONAL WEATHER ROUNDUP
NATIONAL WEATHER SERVICE BISMARCK ND
600 AM CST THU FEB 23 2017

NOTE: "FAIR" INDICATES FEW OR NO CLOUDS BELOW 12,000 FEET WITH NO
SIGNIFICANT WEATHER AND/OR OBSTRUCTIONS TO VISIBILITY.


NDZ001>003-009>011-017-231300-
NORTHWEST NORTH DAKOTA

CITY           SKY/WX    TMP DP  RH WIND       PRES   REMARKS
WILLISTON      CLOUDY    29  26  89 SW5       30.02S
6HR MIN TEMP:  25; 6HR MAX TEMP:  29;

MINOT          LGT SNOW  32  28  85 N14       30.00R FOG
MINOT AFB      MOCLDY    28  25  89 N16       30.01R WCI  16
$$

NDZ018>021-031>035-040>046-231300-
SOUTHWEST NORTH DAKOTA

CITY           SKY/WX    TMP DP  RH WIND       PRES   REMARKS
BISMARCK       MOCLDY    28  25  88 NW5       30.01R
6HR MIN TEMP:  22; 6HR MAX TEMP:  31;

DICKINSON      CLOUDY    24  22  91 NW5       29.96S FOG     WCI  18
GARRISON         N/A     28  26  92 NW6       30.00R
6HR MIN TEMP:  24; 6HR MAX TEMP:  28; 6HR PCP:  0.01;

HETTINGER ARPT CLOUDY    26  24  92 NE8       29.95F WCI  18
$$

NDZ004>008-012>016-024-026-027-054-231300-
NORTHEAST NORTH DAKOTA

CITY           SKY/WX    TMP DP  RH WIND       PRES   REMARKS
GRAND FORKS    CLOUDY    29  20  69 N5        30.05R
GRND FRKS AFB  CLOUDY    28  23  82 N6        30.04R
DEVILS LAKE    CLOUDY    25  23  92 S5        30.03R WCI  19
$$

NDZ022-023-025-028>030-036>039-047>053-231300-
SOUTHEAST NORTH DAKOTA

CITY           SKY/WX    TMP DP  RH WIND       PRES   REMARKS
FARGO          CLOUDY    29  26  89 N10       30.02R WCI  20
6HR MIN TEMP:  26; 6HR MAX TEMP:  31;

JAMESTOWN      FAIR      24  22  91 N9        29.98R WCI  14
$$





USA.gov is the U.S. government's official web portal to all federal, state and local government web resources and services.